Weather in Voznesensk

Ukraine / Mykolaiv District     47°33′37″N   31°20′10″E
temp.,
°C
wind,
m/s
gust,
m/s
humid.,
%
clouds,
%
prec.,
mm/h
press.,
hPa
HPBL,
m
17 april, sat
sat1700:00+6wsw61179100 0.8 1017962
03:00+4wsw48905 0.8 1019251
06:00+2w35905 0.0 102094
09:00+7w34705 0.0 1020496
12:00+12wsw455594 0.0 10201655
15:00+12wnw2446100 0.1 10191285
18:00+12nne335595 0.0 1019375
21:00+9s226830 0.0 102017
18 april, sun
sun1800:00+6sw226390 0.0 101911
03:00+6wsw116632 0.0 101910
06:00+5ssw116671 0.0 101910
09:00+9s115496 0.0 1019328
12:00+13wsw014495 0.0 10181207
15:00+15ene014080 0.0 10171655
18:00+15ne1139100 0.0 10161722
21:00+12ne2252100 0.0 101717
19 april, mon
mon1900:00+12e115264 0.0 101611
03:00+9wsw226360 0.0 101630
06:00+9nw236990 0.0 101661
09:00+11ene116193 0.0 1016226
12:00+14se3451100 0.0 10151469
15:00+13e2353100 0.0 1014396
18:00+14ne4553100 0.0 10131214
21:00+12nne4765100 0.0 1011192
20 april, tue
tue2000:00+11ne61172100 0.0 1008381
03:00+10ne61186100 1.9 1006511
06:00+9nne81595100 10.4 1001766
09:00+9nne91593100 20.3 998859
12:00+9nne101593100 8.2 9961107
15:00+9n111791100 15.1 9961255
18:00+9nnw101489100 4.1 10001330
21:00+9nw91489100 4.9 10041164
21 april, wed
wed2100:00+7wnw71288100 0.1 1008577
03:00+6w5993100 0.1 1010343
06:00+7w5991100 0.0 1012401
09:00+8w69735 0.0 1014859
12:00+12w685335 0.0 10151683
15:00+14w5747100 0.0 10152100
18:00+12wsw3465100 0.0 1017134
21:00+10ssw337099 0.0 101856